Main page
METAR-TAF:

METAR-TAF

Airports :

RAF Spadeadam

Spadeadam, England

latitude: 55-03N, longitude: 002-33W, elevation: 325 m

Current weather observation

The report was made 53 minutes ago, at 08:50 UTC
Wind 12 kt from the East
Temperature 2°C
Humidity 93%
Pressure 1006 hPa
Visibility 10 km or more
Scattered clouds at a height of 2300 ft
Broken clouds at a height of 18000 ft

METAR: EGOM 210850Z 09012KT 9999 SCT023 BKN180 02/01 Q1006 WHT

Time: 09:43 (09:43 UTC)


TAF: missing

Weather observations and forecasts of more than 4000 airports (METAR and TAF reports).

The available stations are represented by yellow and red dots on the map.

Hover mouse over dot to see the name of the station.

Then click to see weather observations and forecasts.

To change the map : click on the green buttons with a black cross to zoom in, on the green button with a dash to zoom out, or on the green arrows for adjacent maps.


METAR-TAF: